EST,Max TemperatureF,Mean TemperatureF,Min TemperatureF,Max Dew PointF,MeanDew PointF,Min DewpointF,Max Humidity, Mean Humidity, Min Humidity, Max Sea Level PressureIn, Mean Sea Level PressureIn, Min Sea Level PressureIn, Max VisibilityMiles, Mean VisibilityMiles, Min VisibilityMiles, Max Wind SpeedMPH, Mean Wind SpeedMPH, Max Gust SpeedMPH,PrecipitationIn, CloudCover, Events, WindDirDegrees
2013-11-1,64,58,51,57,45,39,88,65,48,29.72,29.60,29.37,10,10,6,25,13,39,0.15,6,,226
2013-11-2,51,46,42,43,40,36,87,76,66,29.97,29.78,29.69,10,10,7,14,6,22,0.06,8,,260
2013-11-3,46,37,28,36,28,19,87,66,46,30.46,30.26,29.98,10,10,10,12,5,,0.00,2,,348
2013-11-4,42,34,26,19,18,16,74,54,34,30.55,30.49,30.44,10,10,10,15,8,20,0.00,0,,90
2013-11-5,57,46,35,32,26,19,60,49,36,30.51,30.44,30.35,10,10,10,12,6,,0.00,0,,116
2013-11-6,68,52,35,54,42,25,94,61,49,30.34,30.13,29.94,10,10,3,23,7,31,0.09,4,,182
2013-11-7,55,46,37,54,36,21,94,75,52,30.13,30.04,29.90,10,10,4,15,9,22,0.53,8,,276
2013-11-8,42,34,26,28,25,21,81,65,49,30.29,30.21,30.07,10,10,8,15,8,23,0.00,5,,269
2013-11-9,53,40,26,28,24,21,80,53,28,30.28,30.10,29.95,10,10,10,20,6,26,0.00,2,,193
2013-11-10,51,43,35,36,29,25,71,59,41,30.27,30.10,29.95,10,10,10,22,12,31,0.00,6,,255
2013-11-11,46,38,30,34,27,25,87,65,43,30.27,30.15,30.03,10,9,2,17,6,24,0.03,7,,233
2013-11-12,33,30,26,28,20,16,93,71,48,30.45,30.33,30.13,10,9,1,12,7,22,0.03,6,,314
2013-11-13,35,29,23,21,18,16,86,66,44,30.51,30.43,30.34,10,10,10,16,8,22,0.00,2,,247
2013-11-14,46,36,26,19,17,16,69,50,32,30.33,30.25,30.17,10,10,10,15,9,22,0.00,0,,199
2013-11-15,53,43,33,30,21,16,53,41,26,30.21,30.17,30.13,10,10,10,16,7,23,0.00,1,,189
2013-11-16,57,45,33,45,39,28,81,67,50,30.26,30.17,30.05,10,10,10,12,5,16,0.00,1,,152
2013-11-17,59,55,51,55,50,45,94,84,67,30.05,29.84,29.53,10,9,3,18,8,34,1.01,7,,167
2013-11-18,55,46,37,43,32,25,71,58,41,30.06,29.83,29.63,10,10,10,23,16,37,0.00,4,,257
2013-11-19,37,32,24,25,21,18,80,61,52,30.41,30.26,30.06,10,10,10,12,6,21,0.00,6,,313
2013-11-20,46,34,21,19,15,10,86,51,23,30.48,30.41,30.37,10,10,10,17,7,23,0.00,0,,93
2013-11-21,48,40,32,36,25,12,66,54,41,30.44,30.36,30.24,10,10,10,9,7,,0.00,5,,111
2013-11-22,51,43,35,48,41,28,94,84,62,30.26,30.17,30.08,10,8,1,15,5,24,0.10,8,,255
2013-11-23,35,26,17,28,19,3,86,69,49,30.31,30.23,30.13,10,9,0,15,8,26,0.01,4,,284
2013-11-24,21,16,12,16,7,3,80,62,53,30.49,30.41,30.30,10,9,0,14,10,24,0.00,3,,270
2013-11-25,33,22,12,25,9,3,80,57,38,30.45,30.33,30.20,10,10,2,22,5,32,0.00,3,,195
2013-11-26,33,30,28,30,28,25,93,90,86,30.20,30.02,29.74,10,4,1,9,4,,0.78,8,,111
2013-11-27,32,26,21,28,22,16,93,83,69,30.09,29.83,29.71,10,7,1,15,8,24,0.01,8,,291
2013-11-28,26,20,15,18,14,9,80,69,54,30.40,30.30,30.09,10,10,6,13,8,20,0.00,5,,236
2013-11-29,30,22,15,19,17,10,93,74,60,30.65,30.56,30.40,10,10,5,7,2,,0.00,4,,40
2013-11-30,37,29,21,21,18,14,80,67,48,30.60,30.41,30.21,10,10,10,10,7,,0.00,0,,118